EW5627 Weather Reports


Display with metric or nautical units.
time (UTC)temp
F
wind
direction
speed
MPH
gust
MPH
rain 1hr
in
rain 24hr
in
rain mn
in
humidity
%
barometer
mb
20260902191514 65 67 0.0 0.0 0.28 0.28 0.28 92 1019.3
20260902190012 65 69 0.0 0.0 0.26 0.27 0.27 92 1019.3
20260902184512 66 69 0.0 0.0 0.18 0.19 0.19 91 1019.8
20260902183010 67 31 0.0 0.0 0.00 0.01 0.01 89 1020.3
20260902181509 67 355 0.0 0.0 0.00 0.01 0.01 87 1019.0
20260902180008 67 9 0.0 0.0 0.00 0.01 0.01 87 1019.3
20260902174519 67 30 0.0 0.0 0.00 0.01 0.01 87 1019.4
20260902173007 68 345 0.0 0.0 0.00 0.01 0.01 87 1019.4
20260902171505 67 18 0.0 0.0 0.00 0.01 0.01 89 1019.3
20260902170004 67 257 0.0 0.0 0.00 0.01 0.01 89 1019.6
20260902164501 67 200 0.0 0.0 0.00 0.04 0.01 90 1019.8
20260902163101 67 217 0.0 0.0 0.00 0.04 0.01 90 1019.7
20260902161601 66 257 0.0 0.0 0.00 0.04 0.01 89 1019.6
20260902160059 66 342 0.0 0.0 0.00 0.04 0.01 90 1019.8
20260902154602 66 305 0.0 1.0 0.00 0.11 0.01 90 1019.7
20260902153058 66 14 0.0 0.0 0.00 0.11 0.01 91 1019.7
20260902151559 66 355 0.0 0.0 0.00 0.11 0.01 91 1019.8
20260902150055 65 350 0.0 0.0 0.00 0.11 0.01 92 1019.9
20260902144557 65 350 0.0 0.0 0.00 0.31 0.01 93 1019.8
20260902143049 64 360 0.0 0.0 0.00 0.31 0.01 94 1019.7
20260902141546 64 40 0.0 0.0 0.00 0.31 0.01 94 1019.5
20260902140044 63 40 0.0 0.0 0.00 0.31 0.01 94 1019.9
20260902134542 63 52 0.0 0.0 0.00 0.32 0.01 94 1019.8
20260902133053 62 69 0.0 0.0 0.00 0.32 0.01 94 1019.4
20260902131537 62 63 0.0 0.0 0.00 0.32 0.01 94 1019.3
20260902130036 62 49 0.0 0.0 0.00 0.32 0.01 95 1019.3
20260902124536 61 17 0.0 0.0 0.00 0.32 0.01 95 1019.4
20260902123033 61 339 0.0 0.0 0.00 0.32 0.01 95 1019.3
20260902121532 61 335 0.0 0.0 0.00 0.32 0.01 95 1019.2
20260902120029 61 22 0.0 0.0 0.00 0.32 0.01 94 1019.1
20260902114533 61 350 0.0 0.0 0.00 0.32 0.01 94 1019.1
20260902113026 61 26 0.0 0.0 0.00 0.32 0.01 94 1019.2
20260902111523 61 53 0.0 0.0 0.00 0.32 0.01 94 1019.2
20260902110021 61 22 0.0 0.0 0.00 0.32 0.01 94 1019.1
20260902104519 61 349 0.0 0.0 0.00 0.32 0.01 94 1019.0
20260902103017 61 67 0.0 0.0 0.00 0.32 0.01 94 1018.9
20260902101520 61 347 0.0 0.0 0.00 0.32 0.01 94 1018.6
20260902100017 62 29 0.0 0.0 0.00 0.32 0.01 94 1018.5
20260902094513 62 46 0.0 0.0 0.00 0.32 0.01 94 1018.6
20260902093012 62 360 0.0 0.0 0.00 0.32 0.01 94 1018.5
20260902091511 62 5 0.0 0.0 0.00 0.32 0.01 94 1018.5
20260902090009 62 5 0.0 0.0 0.00 0.32 0.01 94 1018.4
20260902084507 62 5 0.0 0.0 0.00 0.33 0.01 94 1018.1
20260902083006 62 11 0.0 0.0 0.00 0.33 0.01 94 1017.9
20260902081504 62 5 0.0 0.0 0.00 0.33 0.01 94 1017.8
20260902080003 62 350 0.0 0.0 0.00 0.33 0.01 94 1017.7
20260902074503 62 342 0.0 0.0 0.00 0.33 0.01 94 1017.5
20260902073002 62 340 0.0 0.0 0.00 0.33 0.01 94 1017.6
20260902071501 62 346 0.0 0.0 0.00 0.33 0.01 94 1017.5
20260902070101 62 25 0.0 0.0 0.00 0.33 0.01 94 1017.4
20260902064559 62 26 0.0 0.0 0.00 0.50 0.01 94 1017.5
20260902063059 62 9 0.0 0.0 0.00 0.50 0.01 94 1017.6
20260902061558 62 355 0.0 0.0 0.00 0.50 0.01 94 1017.7
20260902060105 62 360 0.0 0.0 0.00 0.50 0.01 94 1017.7
20260902054607 62 355 0.0 0.0 0.01 1.02 0.01 94 1017.9
20260902053110 62 355 0.0 0.0 0.01 1.02 0.01 94 1017.7
20260902051603 62 355 0.0 0.0 0.01 1.02 0.01 94 1017.8
20260902050059 62 355 0.0 0.0 0.01 1.02 0.01 94 1017.7
20260902044552 63 20 0.0 0.0 0.00 1.25 0.00 94 1017.6
20260902043109 63 56 0.0 0.0 0.00 1.25 0.00 93 1017.6
20260902041548 63 55 0.0 0.0 0.00 1.25 0.00 93 1017.4
20260902040049 63 355 0.0 0.0 0.00 1.25 0.00 93 1017.3
20260902034545 63 83 0.0 0.0 0.00 1.25 1.25 93 1017.1
20260902033045 63 335 0.0 0.0 0.00 1.25 1.25 93 1017.0
20260902031543 63 78 0.0 0.0 0.00 1.25 1.25 93 1016.6
20260902030041 63 90 0.0 0.0 0.00 1.25 1.25 93 1016.5
20260902024541 63 355 0.0 0.0 0.00 1.25 1.25 93 1016.4
20260902023043 63 79 0.0 0.0 0.00 1.25 1.25 93 1016.3
20260902021538 64 35 0.0 0.0 0.00 1.25 1.25 92 1016.3
20260902020036 64 340 0.0 0.0 0.00 1.25 1.25 92 1016.3
20260902014536 64 24 0.0 0.0 0.00 1.25 1.25 92 1016.0
20260902013034 64 82 0.0 0.0 0.00 1.25 1.25 92 1015.6
20260902011540 65 92 0.0 1.0 0.00 1.25 1.25 92 1015.4
20260902010030 65 13 0.0 1.0 0.00 1.25 1.25 92 1015.2
20260902004533 66 5 0.0 0.0 0.00 1.25 1.25 91 1015.1
20260902003030 66 5 0.0 0.0 0.00 1.25 1.25 91 1015.1
20260902001525 67 66 0.0 0.0 0.00 1.25 1.25 91 1014.6
20260902000022 68 84 0.0 0.0 0.00 1.25 1.25 91 1014.5
20260901234521 69 89 0.0 3.0 0.00 1.25 1.25 91 1014.5
20260901233024 70 49 0.0 0.0 0.00 1.25 1.25 90 1014.6
20260901231521 71 330 0.0 0.0 0.00 1.25 1.25 91 1014.2
20260901230020 72 55 0.0 2.0 0.00 1.25 1.25 90 1014.1
20260901224525 73 53 0.0 1.0 0.00 1.25 1.25 90 1013.7
20260901223019 75 240 0.0 0.0 0.00 1.25 1.25 90 1013.7
20260901221552 75 221 0.0 0.0 0.00 1.25 1.25 91 1013.4
20260901220027 76 225 0.0 0.0 0.00 1.25 1.25 91 1013.5
20260901214517 76 198 0.0 0.0 0.00 1.25 1.25 90 1013.5
20260901213022 76 195 0.0 0.0 0.00 1.25 1.25 89 1013.5
20260901211517 77 195 0.0 0.0 0.00 1.25 1.25 87 1013.4
20260901210016 78 195 0.0 0.0 0.00 1.25 1.25 87 1013.4
20260901204520 78 195 0.0 0.0 0.00 1.25 1.25 86 1013.4
20260901203015 78 195 0.0 0.0 0.00 1.25 1.25 85 1013.4
20260901201513 78 195 0.0 0.0 0.00 1.25 1.25 87 1013.2
20260901200025 78 195 0.0 0.0 0.00 1.25 1.25 86 1013.4
20260901194512 79 195 0.0 0.0 0.00 1.25 1.25 86 1013.4
20260901193011 78 195 0.0 0.0 0.00 1.25 1.25 86 1013.5